owner,sensor,date,latitude,longitude,vertical_datum,sea_water_practical_salinity,qcFlag 
NERRS,ioos:station:NOAA.NERRS:gndblwq:1,2015-04-01T00:00:00Z,30.3571,-88.4629,0.51,19.2,1111122 
NERRS,ioos:station:NOAA.NERRS:gndblwq:1,2015-04-01T01:00:00Z,30.3571,-88.4629,0.51,19.0,1111122 
NERRS,ioos:station:NOAA.NERRS:gndblwq:1,2015-04-01T02:00:00Z,30.3571,-88.4629,0.48,18.6,1111122 
NERRS,ioos:station:NOAA.NERRS:gndblwq:1,2015-04-01T03:00:00Z,30.3571,-88.4629,0.46,19.5,1111122 
NERRS,ioos:station:NOAA.NERRS:gndblwq:1,2015-04-01T04:00:00Z,30.3571,-88.4629,0.42,19.8,1111122 
NERRS,ioos:station:NOAA.NERRS:gndblwq:1,2015-04-01T06:00:00Z,30.3571,-88.4629,0.34,18.7,1111122 
NERRS,ioos:station:NOAA.NERRS:gndblwq:1,2015-04-01T07:00:00Z,30.3571,-88.4629,0.28,18.5,1111122 
NERRS,ioos:station:NOAA.NERRS:gndblwq:1,2015-04-01T08:00:00Z,30.3571,-88.4629,0.27,18.9,1111122 
NERRS,ioos:station:NOAA.NERRS:gndblwq:1,2015-04-01T09:00:00Z,30.3571,-88.4629,0.28,18.4,1111122 
NERRS,ioos:station:NOAA.NERRS:gndblwq:1,2015-04-01T10:00:00Z,30.3571,-88.4629,0.31,18.4,1111122 
NERRS,ioos:station:NOAA.NERRS:gndblwq:1,2015-04-01T11:00:00Z,30.3571,-88.4629,0.33,18.6,1111122 
NERRS,ioos:station:NOAA.NERRS:gndblwq:1,2015-04-01T12:00:00Z,30.3571,-88.4629,0.33,18.6,1111122 
NERRS,ioos:station:NOAA.NERRS:gndblwq:1,2015-04-01T13:00:00Z,30.3571,-88.4629,0.33,18.5,1111122 
NERRS,ioos:station:NOAA.NERRS:gndblwq:1,2015-04-01T14:00:00Z,30.3571,-88.4629,0.36,18.6,1111122 
NERRS,ioos:station:NOAA.NERRS:gndblwq:1,2015-04-01T15:00:00Z,30.3571,-88.4629,0.36,18.8,1111122 
NERRS,ioos:station:NOAA.NERRS:gndblwq:1,2015-04-01T16:00:00Z,30.3571,-88.4629,0.39,18.9,1111122 
NERRS,ioos:station:NOAA.NERRS:gndblwq:1,2015-04-01T17:00:00Z,30.3571,-88.4629,0.43,18.9,1111122 
NERRS,ioos:station:NOAA.NERRS:gndblwq:1,2015-04-01T18:00:00Z,30.3571,-88.4629,0.42,19.0,1111122 
NERRS,ioos:station:NOAA.NERRS:gndblwq:1,2015-04-01T19:00:00Z,30.3571,-88.4629,0.38,18.8,1111122 
NERRS,ioos:station:NOAA.NERRS:gndblwq:1,2015-04-01T20:00:00Z,30.3571,-88.4629,0.33,18.9,1111122 
NERRS,ioos:station:NOAA.NERRS:gndblwq:1,2015-04-01T21:00:00Z,30.3571,-88.4629,0.33,19.0,1111122 
NERRS,ioos:station:NOAA.NERRS:gndblwq:1,2015-04-01T22:00:00Z,30.3571,-88.4629,0.38,19.0,1111122 
NERRS,ioos:station:NOAA.NERRS:gndblwq:1,2015-04-01T23:00:00Z,30.3571,-88.4629,0.45,19.0,1111122 
NERRS,ioos:station:NOAA.NERRS:gndblwq:1,2015-04-02T00:00:00Z,30.3571,-88.4629,0.5,19.1,1111122 
NERRS,ioos:station:NOAA.NERRS:gndblwq:1,2015-04-02T01:00:00Z,30.3571,-88.4629,0.48,18.9,1111122 
NERRS,ioos:station:NOAA.NERRS:gndblwq:1,2015-04-02T02:00:00Z,30.3571,-88.4629,0.47,18.9,1111122 
NERRS,ioos:station:NOAA.NERRS:gndblwq:1,2015-04-02T03:00:00Z,30.3571,-88.4629,0.47,19.0,1111122 
NERRS,ioos:station:NOAA.NERRS:gndblwq:1,2015-04-02T04:00:00Z,30.3571,-88.4629,0.48,19.1,1111122 
NERRS,ioos:station:NOAA.NERRS:gndblwq:1,2015-04-02T05:00:00Z,30.3571,-88.4629,0.47,19.0,1111122 
NERRS,ioos:station:NOAA.NERRS:gndblwq:1,2015-04-02T06:00:00Z,30.3571,-88.4629,0.44,18.8,1111122 
NERRS,ioos:station:NOAA.NERRS:gndblwq:1,2015-04-02T07:00:00Z,30.3571,-88.4629,0.4,18.8,1111122 
NERRS,ioos:station:NOAA.NERRS:gndblwq:1,2015-04-02T08:00:00Z,30.3571,-88.4629,0.37,18.9,1111122 
NERRS,ioos:station:NOAA.NERRS:gndblwq:1,2015-04-02T09:00:00Z,30.3571,-88.4629,0.35,18.9,1111122 
NERRS,ioos:station:NOAA.NERRS:gndblwq:1,2015-04-02T10:00:00Z,30.3571,-88.4629,0.37,18.9,1111122 
NERRS,ioos:station:NOAA.NERRS:gndblwq:1,2015-04-02T11:00:00Z,30.3571,-88.4629,0.42,19.0,1111122 
NERRS,ioos:station:NOAA.NERRS:gndblwq:1,2015-04-02T12:00:00Z,30.3571,-88.4629,0.45,19.0,1111122 
NERRS,ioos:station:NOAA.NERRS:gndblwq:1,2015-04-02T13:00:00Z,30.3571,-88.4629,0.51,19.0,1111122 
NERRS,ioos:station:NOAA.NERRS:gndblwq:1,2015-04-02T14:00:00Z,30.3571,-88.4629,0.52,19.1,1111122 
NERRS,ioos:station:NOAA.NERRS:gndblwq:1,2015-04-02T15:00:00Z,30.3571,-88.4629,0.51,19.2,1111122 
NERRS,ioos:station:NOAA.NERRS:gndblwq:1,2015-04-02T16:00:00Z,30.3571,-88.4629,0.49,19.0,1111122 
NERRS,ioos:station:NOAA.NERRS:gndblwq:1,2015-04-02T17:00:00Z,30.3571,-88.4629,0.51,19.0,1111122 
NERRS,ioos:station:NOAA.NERRS:gndblwq:1,2015-04-02T18:00:00Z,30.3571,-88.4629,0.52,19.0,1111122 
NERRS,ioos:station:NOAA.NERRS:gndblwq:1,2015-04-02T19:00:00Z,30.3571,-88.4629,0.48,18.8,1111122 
NERRS,ioos:station:NOAA.NERRS:gndblwq:1,2015-04-02T20:00:00Z,30.3571,-88.4629,0.4,18.8,1111122 
NERRS,ioos:station:NOAA.NERRS:gndblwq:1,2015-04-02T21:00:00Z,30.3571,-88.4629,0.38,18.9,1111122 
NERRS,ioos:station:NOAA.NERRS:gndblwq:1,2015-04-02T22:00:00Z,30.3571,-88.4629,0.39,18.9,1111122 
NERRS,ioos:station:NOAA.NERRS:gndblwq:1,2015-04-02T23:00:00Z,30.3571,-88.4629,0.41,19.0,1111122 
NERRS,ioos:station:NOAA.NERRS:gndblwq:1,2015-04-03T00:00:00Z,30.3571,-88.4629,0.46,18.9,1111122 
NERRS,ioos:station:NOAA.NERRS:gndblwq:1,2015-04-03T01:00:00Z,30.3571,-88.4629,0.52,18.9,1111122 
NERRS,ioos:station:NOAA.NERRS:gndblwq:1,2015-04-03T02:00:00Z,30.3571,-88.4629,0.53,18.8,1111122 
NERRS,ioos:station:NOAA.NERRS:gndblwq:1,2015-04-03T03:00:00Z,30.3571,-88.4629,0.49,18.7,1111122 
NERRS,ioos:station:NOAA.NERRS:gndblwq:1,2015-04-03T04:00:00Z,30.3571,-88.4629,0.5,18.7,1111122 
NERRS,ioos:station:NOAA.NERRS:gndblwq:1,2015-04-03T05:00:00Z,30.3571,-88.4629,0.49,18.7,1111122 
NERRS,ioos:station:NOAA.NERRS:gndblwq:1,2015-04-03T06:00:00Z,30.3571,-88.4629,0.47,18.7,1111122 
NERRS,ioos:station:NOAA.NERRS:gndblwq:1,2015-04-03T07:00:00Z,30.3571,-88.4629,0.43,18.9,1111122 
NERRS,ioos:station:NOAA.NERRS:gndblwq:1,2015-04-03T08:00:00Z,30.3571,-88.4629,0.41,18.9,1111122 
NERRS,ioos:station:NOAA.NERRS:gndblwq:1,2015-04-03T09:00:00Z,30.3571,-88.4629,0.4,18.9,1111122 
NERRS,ioos:station:NOAA.NERRS:gndblwq:1,2015-04-03T10:00:00Z,30.3571,-88.4629,0.4,18.9,1111122 
NERRS,ioos:station:NOAA.NERRS:gndblwq:1,2015-04-03T11:00:00Z,30.3571,-88.4629,0.39,18.9,1111122 
NERRS,ioos:station:NOAA.NERRS:gndblwq:1,2015-04-03T12:00:00Z,30.3571,-88.4629,0.44,18.9,1111122 
NERRS,ioos:station:NOAA.NERRS:gndblwq:1,2015-04-03T13:00:00Z,30.3571,-88.4629,0.51,18.9,1111122 
NERRS,ioos:station:NOAA.NERRS:gndblwq:1,2015-04-03T14:00:00Z,30.3571,-88.4629,0.52,18.7,1111122 
NERRS,ioos:station:NOAA.NERRS:gndblwq:1,2015-04-03T15:00:00Z,30.3571,-88.4629,0.5,18.7,1111122 
NERRS,ioos:station:NOAA.NERRS:gndblwq:1,2015-04-03T16:00:00Z,30.3571,-88.4629,0.5,18.8,1111122 
NERRS,ioos:station:NOAA.NERRS:gndblwq:1,2015-04-03T17:00:00Z,30.3571,-88.4629,0.51,18.7,1111122 
NERRS,ioos:station:NOAA.NERRS:gndblwq:1,2015-04-03T18:00:00Z,30.3571,-88.4629,0.5,18.7,1111122 
NERRS,ioos:station:NOAA.NERRS:gndblwq:1,2015-04-03T19:00:00Z,30.3571,-88.4629,0.45,18.9,1111122 
NERRS,ioos:station:NOAA.NERRS:gndblwq:1,2015-04-03T20:00:00Z,30.3571,-88.4629,0.41,18.9,1111122 
NERRS,ioos:station:NOAA.NERRS:gndblwq:1,2015-04-03T21:00:00Z,30.3571,-88.4629,0.37,18.9,1111122 
NERRS,ioos:station:NOAA.NERRS:gndblwq:1,2015-04-03T22:00:00Z,30.3571,-88.4629,0.38,19.0,1111122 
NERRS,ioos:station:NOAA.NERRS:gndblwq:1,2015-04-03T23:00:00Z,30.3571,-88.4629,0.4,18.8,1111122 
NERRS,ioos:station:NOAA.NERRS:gndblwq:1,2015-04-04T00:00:00Z,30.3571,-88.4629,0.42,18.8,1111122 
NERRS,ioos:station:NOAA.NERRS:gndblwq:1,2015-04-04T01:00:00Z,30.3571,-88.4629,0.44,18.8,1111122 
NERRS,ioos:station:NOAA.NERRS:gndblwq:1,2015-04-04T02:00:00Z,30.3571,-88.4629,0.47,18.7,1111122 
NERRS,ioos:station:NOAA.NERRS:gndblwq:1,2015-04-04T03:00:00Z,30.3571,-88.4629,0.48,18.9,1111122 
NERRS,ioos:station:NOAA.NERRS:gndblwq:1,2015-04-04T04:00:00Z,30.3571,-88.4629,0.48,18.7,1111122 
NERRS,ioos:station:NOAA.NERRS:gndblwq:1,2015-04-04T06:00:00Z,30.3571,-88.4629,0.44,19.1,1111122 
NERRS,ioos:station:NOAA.NERRS:gndblwq:1,2015-04-04T07:00:00Z,30.3571,-88.4629,0.39,19.1,1111122 
NERRS,ioos:station:NOAA.NERRS:gndblwq:1,2015-04-04T08:00:00Z,30.3571,-88.4629,0.37,19.0,1111122 
NERRS,ioos:station:NOAA.NERRS:gndblwq:1,2015-04-04T09:00:00Z,30.3571,-88.4629,0.35,19.0,1111122 
NERRS,ioos:station:NOAA.NERRS:gndblwq:1,2015-04-04T10:00:00Z,30.3571,-88.4629,0.35,18.9,1111122 
NERRS,ioos:station:NOAA.NERRS:gndblwq:1,2015-04-04T11:00:00Z,30.3571,-88.4629,0.4,18.9,1111122 
NERRS,ioos:station:NOAA.NERRS:gndblwq:1,2015-04-04T12:00:00Z,30.3571,-88.4629,0.4,18.9,1111122 
NERRS,ioos:station:NOAA.NERRS:gndblwq:1,2015-04-04T13:00:00Z,30.3571,-88.4629,0.35,18.9,1111122 
NERRS,ioos:station:NOAA.NERRS:gndblwq:1,2015-04-04T14:00:00Z,30.3571,-88.4629,0.37,18.9,1111122 
NERRS,ioos:station:NOAA.NERRS:gndblwq:1,2015-04-04T15:00:00Z,30.3571,-88.4629,0.35,18.8,1111122 
NERRS,ioos:station:NOAA.NERRS:gndblwq:1,2015-04-04T16:00:00Z,30.3571,-88.4629,0.29,18.9,1111122 
NERRS,ioos:station:NOAA.NERRS:gndblwq:1,2015-04-04T17:00:00Z,30.3571,-88.4629,0.3,18.9,1111122 
NERRS,ioos:station:NOAA.NERRS:gndblwq:1,2015-04-04T18:00:00Z,30.3571,-88.4629,0.34,18.9,1111122 
NERRS,ioos:station:NOAA.NERRS:gndblwq:1,2015-04-04T19:00:00Z,30.3571,-88.4629,0.38,18.9,1111122 
NERRS,ioos:station:NOAA.NERRS:gndblwq:1,2015-04-04T20:00:00Z,30.3571,-88.4629,0.38,18.8,1111122 
NERRS,ioos:station:NOAA.NERRS:gndblwq:1,2015-04-04T21:00:00Z,30.3571,-88.4629,0.3,18.9,1111122 
NERRS,ioos:station:NOAA.NERRS:gndblwq:1,2015-04-04T22:00:00Z,30.3571,-88.4629,0.21,18.9,1111122 
NERRS,ioos:station:NOAA.NERRS:gndblwq:1,2015-04-04T23:00:00Z,30.3571,-88.4629,0.2,19.0,1111122 
NERRS,ioos:station:NOAA.NERRS:gndblwq:1,2015-04-05T00:00:00Z,30.3571,-88.4629,0.24,18.9,1111122 
NERRS,ioos:station:NOAA.NERRS:gndblwq:1,2015-04-05T01:00:00Z,30.3571,-88.4629,0.3,18.9,1111122 
NERRS,ioos:station:NOAA.NERRS:gndblwq:1,2015-04-05T02:00:00Z,30.3571,-88.4629,0.33,18.9,1111122 
NERRS,ioos:station:NOAA.NERRS:gndblwq:1,2015-04-05T03:00:00Z,30.3571,-88.4629,0.34,18.8,1111122 
NERRS,ioos:station:NOAA.NERRS:gndblwq:1,2015-04-05T04:00:00Z,30.3571,-88.4629,0.33,18.8,1111122 
NERRS,ioos:station:NOAA.NERRS:gndblwq:1,2015-04-05T06:00:00Z,30.3571,-88.4629,0.35,18.8,1111122 
NERRS,ioos:station:NOAA.NERRS:gndblwq:1,2015-04-05T07:00:00Z,30.3571,-88.4629,0.4,18.8,1111122 
NERRS,ioos:station:NOAA.NERRS:gndblwq:1,2015-04-05T08:00:00Z,30.3571,-88.4629,0.44,18.6,1111122 
NERRS,ioos:station:NOAA.NERRS:gndblwq:1,2015-04-05T09:00:00Z,30.3571,-88.4629,0.47,18.5,1111122 
NERRS,ioos:station:NOAA.NERRS:gndblwq:1,2015-04-05T10:00:00Z,30.3571,-88.4629,0.47,18.4,1111122 
NERRS,ioos:station:NOAA.NERRS:gndblwq:1,2015-04-05T11:00:00Z,30.3571,-88.4629,0.51,18.5,1111122 
NERRS,ioos:station:NOAA.NERRS:gndblwq:1,2015-04-05T12:00:00Z,30.3571,-88.4629,0.55,18.5,1111122 
NERRS,ioos:station:NOAA.NERRS:gndblwq:1,2015-04-05T13:00:00Z,30.3571,-88.4629,0.6,18.3,1111122 
NERRS,ioos:station:NOAA.NERRS:gndblwq:1,2015-04-05T14:00:00Z,30.3571,-88.4629,0.64,18.6,1111122 
NERRS,ioos:station:NOAA.NERRS:gndblwq:1,2015-04-05T15:00:00Z,30.3571,-88.4629,0.67,18.9,1111122 
NERRS,ioos:station:NOAA.NERRS:gndblwq:1,2015-04-05T16:00:00Z,30.3571,-88.4629,0.67,19.1,1111122 
NERRS,ioos:station:NOAA.NERRS:gndblwq:1,2015-04-05T17:00:00Z,30.3571,-88.4629,0.66,19.0,1111122 
NERRS,ioos:station:NOAA.NERRS:gndblwq:1,2015-04-05T18:00:00Z,30.3571,-88.4629,0.64,19.0,1111122 
NERRS,ioos:station:NOAA.NERRS:gndblwq:1,2015-04-05T19:00:00Z,30.3571,-88.4629,0.59,19.0,1111122 
NERRS,ioos:station:NOAA.NERRS:gndblwq:1,2015-04-05T20:00:00Z,30.3571,-88.4629,0.51,18.9,1111122 
NERRS,ioos:station:NOAA.NERRS:gndblwq:1,2015-04-05T21:00:00Z,30.3571,-88.4629,0.42,18.6,1111122 
NERRS,ioos:station:NOAA.NERRS:gndblwq:1,2015-04-05T22:00:00Z,30.3571,-88.4629,0.37,18.5,1111122 
NERRS,ioos:station:NOAA.NERRS:gndblwq:1,2015-04-05T23:00:00Z,30.3571,-88.4629,0.31,18.7,1111122 
NERRS,ioos:station:NOAA.NERRS:gndblwq:1,2015-04-06T00:00:00Z,30.3571,-88.4629,0.28,18.7,1111122 
NERRS,ioos:station:NOAA.NERRS:gndblwq:1,2015-04-06T01:00:00Z,30.3571,-88.4629,0.28,18.6,1111122 
NERRS,ioos:station:NOAA.NERRS:gndblwq:1,2015-04-06T02:00:00Z,30.3571,-88.4629,0.31,18.6,1111122 
NERRS,ioos:station:NOAA.NERRS:gndblwq:1,2015-04-06T03:00:00Z,30.3571,-88.4629,0.34,18.6,1111122 
NERRS,ioos:station:NOAA.NERRS:gndblwq:1,2015-04-06T04:00:00Z,30.3571,-88.4629,0.43,18.9,1111122 
NERRS,ioos:station:NOAA.NERRS:gndblwq:1,2015-04-06T05:00:00Z,30.3571,-88.4629,0.44,18.6,1111122 
NERRS,ioos:station:NOAA.NERRS:gndblwq:1,2015-04-06T06:00:00Z,30.3571,-88.4629,0.45,18.6,1111122 
NERRS,ioos:station:NOAA.NERRS:gndblwq:1,2015-04-06T07:00:00Z,30.3571,-88.4629,0.52,18.7,1111122 
NERRS,ioos:station:NOAA.NERRS:gndblwq:1,2015-04-06T08:00:00Z,30.3571,-88.4629,0.53,18.6,1111122 
NERRS,ioos:station:NOAA.NERRS:gndblwq:1,2015-04-06T09:00:00Z,30.3571,-88.4629,0.46,18.6,1111122 
NERRS,ioos:station:NOAA.NERRS:gndblwq:1,2015-04-06T10:00:00Z,30.3571,-88.4629,0.44,18.6,1111122 
NERRS,ioos:station:NOAA.NERRS:gndblwq:1,2015-04-06T11:00:00Z,30.3571,-88.4629,0.47,18.6,1111122 
NERRS,ioos:station:NOAA.NERRS:gndblwq:1,2015-04-06T12:00:00Z,30.3571,-88.4629,0.54,18.6,1111122 
NERRS,ioos:station:NOAA.NERRS:gndblwq:1,2015-04-06T13:00:00Z,30.3571,-88.4629,0.61,18.6,1111122 
NERRS,ioos:station:NOAA.NERRS:gndblwq:1,2015-04-06T14:00:00Z,30.3571,-88.4629,0.66,18.6,1111122 
NERRS,ioos:station:NOAA.NERRS:gndblwq:1,2015-04-06T15:00:00Z,30.3571,-88.4629,0.69,18.9,1111122 
NERRS,ioos:station:NOAA.NERRS:gndblwq:1,2015-04-06T16:00:00Z,30.3571,-88.4629,0.71,19.1,1111122 
NERRS,ioos:station:NOAA.NERRS:gndblwq:1,2015-04-06T17:00:00Z,30.3571,-88.4629,0.71,19.1,1111122 
NERRS,ioos:station:NOAA.NERRS:gndblwq:1,2015-04-06T18:00:00Z,30.3571,-88.4629,0.69,19.1,1111122 
NERRS,ioos:station:NOAA.NERRS:gndblwq:1,2015-04-06T19:00:00Z,30.3571,-88.4629,0.64,19.1,1111122 
NERRS,ioos:station:NOAA.NERRS:gndblwq:1,2015-04-06T20:00:00Z,30.3571,-88.4629,0.56,18.7,1111122 
NERRS,ioos:station:NOAA.NERRS:gndblwq:1,2015-04-06T21:00:00Z,30.3571,-88.4629,0.48,18.6,1111122 
NERRS,ioos:station:NOAA.NERRS:gndblwq:1,2015-04-06T22:00:00Z,30.3571,-88.4629,0.42,18.6,1111122 
NERRS,ioos:station:NOAA.NERRS:gndblwq:1,2015-04-06T23:00:00Z,30.3571,-88.4629,0.38,18.6,1111122 
NERRS,ioos:station:NOAA.NERRS:gndblwq:1,2015-04-07T00:00:00Z,30.3571,-88.4629,0.33,18.6,1111122 
NERRS,ioos:station:NOAA.NERRS:gndblwq:1,2015-04-07T01:00:00Z,30.3571,-88.4629,0.32,18.9,1111122 
NERRS,ioos:station:NOAA.NERRS:gndblwq:1,2015-04-07T02:00:00Z,30.3571,-88.4629,0.38,18.7,1111122 
NERRS,ioos:station:NOAA.NERRS:gndblwq:1,2015-04-07T03:00:00Z,30.3571,-88.4629,0.42,18.9,1111122 
NERRS,ioos:station:NOAA.NERRS:gndblwq:1,2015-04-07T04:00:00Z,30.3571,-88.4629,0.39,18.5,1111122 
NERRS,ioos:station:NOAA.NERRS:gndblwq:1,2015-04-07T06:00:00Z,30.3571,-88.4629,0.45,18.7,1111122 
NERRS,ioos:station:NOAA.NERRS:gndblwq:1,2015-04-07T07:00:00Z,30.3571,-88.4629,0.51,18.7,1111122 
NERRS,ioos:station:NOAA.NERRS:gndblwq:1,2015-04-07T08:00:00Z,30.3571,-88.4629,0.48,18.6,1111122 
NERRS,ioos:station:NOAA.NERRS:gndblwq:1,2015-04-07T09:00:00Z,30.3571,-88.4629,0.45,18.6,1111122 
NERRS,ioos:station:NOAA.NERRS:gndblwq:1,2015-04-07T10:00:00Z,30.3571,-88.4629,0.46,18.6,1111122 
NERRS,ioos:station:NOAA.NERRS:gndblwq:1,2015-04-07T11:00:00Z,30.3571,-88.4629,0.51,18.6,1111122 
NERRS,ioos:station:NOAA.NERRS:gndblwq:1,2015-04-07T12:00:00Z,30.3571,-88.4629,0.58,18.7,1111122 
NERRS,ioos:station:NOAA.NERRS:gndblwq:1,2015-04-07T13:00:00Z,30.3571,-88.4629,0.63,18.7,1111122 
NERRS,ioos:station:NOAA.NERRS:gndblwq:1,2015-04-07T14:00:00Z,30.3571,-88.4629,0.66,18.8,1111122 
NERRS,ioos:station:NOAA.NERRS:gndblwq:1,2015-04-07T15:00:00Z,30.3571,-88.4629,0.69,18.9,1111122 
NERRS,ioos:station:NOAA.NERRS:gndblwq:1,2015-04-07T16:00:00Z,30.3571,-88.4629,0.7,19.0,1111122 
NERRS,ioos:station:NOAA.NERRS:gndblwq:1,2015-04-07T17:00:00Z,30.3571,-88.4629,0.69,18.9,1111122 
NERRS,ioos:station:NOAA.NERRS:gndblwq:1,2015-04-07T18:00:00Z,30.3571,-88.4629,0.65,18.9,1111122 
NERRS,ioos:station:NOAA.NERRS:gndblwq:1,2015-04-07T19:00:00Z,30.3571,-88.4629,0.58,18.7,1111122 
NERRS,ioos:station:NOAA.NERRS:gndblwq:1,2015-04-07T20:00:00Z,30.3571,-88.4629,0.51,18.7,1111122 
NERRS,ioos:station:NOAA.NERRS:gndblwq:1,2015-04-07T21:00:00Z,30.3571,-88.4629,0.46,18.7,1111122 
NERRS,ioos:station:NOAA.NERRS:gndblwq:1,2015-04-07T22:00:00Z,30.3571,-88.4629,0.39,18.7,1111122 
NERRS,ioos:station:NOAA.NERRS:gndblwq:1,2015-04-07T23:00:00Z,30.3571,-88.4629,0.32,18.7,1111122 
NERRS,ioos:station:NOAA.NERRS:gndblwq:1,2015-04-08T00:00:00Z,30.3571,-88.4629,0.26,18.6,1111122 
NERRS,ioos:station:NOAA.NERRS:gndblwq:1,2015-04-08T01:00:00Z,30.3571,-88.4629,0.23,18.7,1111122 
NERRS,ioos:station:NOAA.NERRS:gndblwq:1,2015-04-08T02:00:00Z,30.3571,-88.4629,0.27,19.0,1111122 
NERRS,ioos:station:NOAA.NERRS:gndblwq:1,2015-04-08T03:00:00Z,30.3571,-88.4629,0.29,18.7,1111122 
NERRS,ioos:station:NOAA.NERRS:gndblwq:1,2015-04-08T04:00:00Z,30.3571,-88.4629,0.29,18.7,1111122 
NERRS,ioos:station:NOAA.NERRS:gndblwq:1,2015-04-08T06:00:00Z,30.3571,-88.4629,0.35,18.7,1111122 
NERRS,ioos:station:NOAA.NERRS:gndblwq:1,2015-04-08T07:00:00Z,30.3571,-88.4629,0.34,18.7,1111122 
NERRS,ioos:station:NOAA.NERRS:gndblwq:1,2015-04-08T08:00:00Z,30.3571,-88.4629,0.39,18.7,1111122 
NERRS,ioos:station:NOAA.NERRS:gndblwq:1,2015-04-08T09:00:00Z,30.3571,-88.4629,0.42,18.7,1111122 
NERRS,ioos:station:NOAA.NERRS:gndblwq:1,2015-04-08T10:00:00Z,30.3571,-88.4629,0.41,18.6,1111122 
NERRS,ioos:station:NOAA.NERRS:gndblwq:1,2015-04-08T11:00:00Z,30.3571,-88.4629,0.45,18.7,1111122 
NERRS,ioos:station:NOAA.NERRS:gndblwq:1,2015-04-08T12:00:00Z,30.3571,-88.4629,0.51,18.6,1111122 
NERRS,ioos:station:NOAA.NERRS:gndblwq:1,2015-04-08T13:00:00Z,30.3571,-88.4629,0.55,18.6,1111122 
NERRS,ioos:station:NOAA.NERRS:gndblwq:1,2015-04-08T14:00:00Z,30.3571,-88.4629,0.62,18.7,1111122 
NERRS,ioos:station:NOAA.NERRS:gndblwq:1,2015-04-08T15:00:00Z,30.3571,-88.4629,0.68,18.9,1111122 
NERRS,ioos:station:NOAA.NERRS:gndblwq:1,2015-04-08T16:00:00Z,30.3571,-88.4629,0.71,18.9,1111122 
NERRS,ioos:station:NOAA.NERRS:gndblwq:1,2015-04-08T17:00:00Z,30.3571,-88.4629,0.71,18.8,1111122 
NERRS,ioos:station:NOAA.NERRS:gndblwq:1,2015-04-08T18:00:00Z,30.3571,-88.4629,0.7,18.8,1111122 
NERRS,ioos:station:NOAA.NERRS:gndblwq:1,2015-04-08T19:00:00Z,30.3571,-88.4629,0.66,18.8,1111122 
NERRS,ioos:station:NOAA.NERRS:gndblwq:1,2015-04-08T20:00:00Z,30.3571,-88.4629,0.62,18.8,1111122 
NERRS,ioos:station:NOAA.NERRS:gndblwq:1,2015-04-08T21:00:00Z,30.3571,-88.4629,0.58,18.7,1111122 
NERRS,ioos:station:NOAA.NERRS:gndblwq:1,2015-04-08T22:00:00Z,30.3571,-88.4629,0.52,18.7,1111122 
NERRS,ioos:station:NOAA.NERRS:gndblwq:1,2015-04-08T23:00:00Z,30.3571,-88.4629,0.43,18.7,1111122 
NERRS,ioos:station:NOAA.NERRS:gndblwq:1,2015-04-09T00:00:00Z,30.3571,-88.4629,0.36,18.7,1111122 
NERRS,ioos:station:NOAA.NERRS:gndblwq:1,2015-04-09T01:00:00Z,30.3571,-88.4629,0.32,18.7,1111122 
NERRS,ioos:station:NOAA.NERRS:gndblwq:1,2015-04-09T02:00:00Z,30.3571,-88.4629,0.31,18.7,1111122 
NERRS,ioos:station:NOAA.NERRS:gndblwq:1,2015-04-09T03:00:00Z,30.3571,-88.4629,0.32,18.7,1111122 
NERRS,ioos:station:NOAA.NERRS:gndblwq:1,2015-04-09T04:00:00Z,30.3571,-88.4629,0.35,18.9,1111122 
NERRS,ioos:station:NOAA.NERRS:gndblwq:1,2015-04-09T06:00:00Z,30.3571,-88.4629,0.31,18.8,1111122 
NERRS,ioos:station:NOAA.NERRS:gndblwq:1,2015-04-09T07:00:00Z,30.3571,-88.4629,0.33,18.8,1111122 
NERRS,ioos:station:NOAA.NERRS:gndblwq:1,2015-04-09T08:00:00Z,30.3571,-88.4629,0.37,18.8,1111122 
NERRS,ioos:station:NOAA.NERRS:gndblwq:1,2015-04-09T09:00:00Z,30.3571,-88.4629,0.44,18.8,1111122 
NERRS,ioos:station:NOAA.NERRS:gndblwq:1,2015-04-09T10:00:00Z,30.3571,-88.4629,0.5,18.8,1111122 
NERRS,ioos:station:NOAA.NERRS:gndblwq:1,2015-04-09T11:00:00Z,30.3571,-88.4629,0.53,18.8,1111122 
NERRS,ioos:station:NOAA.NERRS:gndblwq:1,2015-04-09T12:00:00Z,30.3571,-88.4629,0.55,18.8,1111122 
NERRS,ioos:station:NOAA.NERRS:gndblwq:1,2015-04-09T13:00:00Z,30.3571,-88.4629,0.59,18.8,1111122 
NERRS,ioos:station:NOAA.NERRS:gndblwq:1,2015-04-09T14:00:00Z,30.3571,-88.4629,0.63,18.8,1111122 
NERRS,ioos:station:NOAA.NERRS:gndblwq:1,2015-04-09T15:00:00Z,30.3571,-88.4629,0.68,18.7,1111122 
NERRS,ioos:station:NOAA.NERRS:gndblwq:1,2015-04-09T16:00:00Z,30.3571,-88.4629,0.72,18.8,1111122 
NERRS,ioos:station:NOAA.NERRS:gndblwq:1,2015-04-09T17:00:00Z,30.3571,-88.4629,0.75,18.7,1111122 
NERRS,ioos:station:NOAA.NERRS:gndblwq:1,2015-04-09T18:00:00Z,30.3571,-88.4629,0.75,18.6,1111122 
NERRS,ioos:station:NOAA.NERRS:gndblwq:1,2015-04-09T19:00:00Z,30.3571,-88.4629,0.72,18.7,1111122 
NERRS,ioos:station:NOAA.NERRS:gndblwq:1,2015-04-09T20:00:00Z,30.3571,-88.4629,0.66,18.7,1111122 
NERRS,ioos:station:NOAA.NERRS:gndblwq:1,2015-04-09T21:00:00Z,30.3571,-88.4629,0.58,18.7,1111122 
NERRS,ioos:station:NOAA.NERRS:gndblwq:1,2015-04-09T22:00:00Z,30.3571,-88.4629,0.52,18.7,1111122 
NERRS,ioos:station:NOAA.NERRS:gndblwq:1,2015-04-09T23:00:00Z,30.3571,-88.4629,0.46,18.7,1111122 
NERRS,ioos:station:NOAA.NERRS:gndblwq:1,2015-04-10T00:00:00Z,30.3571,-88.4629,0.41,18.7,1111122 
NERRS,ioos:station:NOAA.NERRS:gndblwq:1,2015-04-10T01:00:00Z,30.3571,-88.4629,0.33,18.7,1111122 
NERRS,ioos:station:NOAA.NERRS:gndblwq:1,2015-04-10T02:00:00Z,30.3571,-88.4629,0.29,18.9,1111122 
NERRS,ioos:station:NOAA.NERRS:gndblwq:1,2015-04-10T03:00:00Z,30.3571,-88.4629,0.29,18.8,1111122 
NERRS,ioos:station:NOAA.NERRS:gndblwq:1,2015-04-10T04:00:00Z,30.3571,-88.4629,0.29,18.7,1111122 
NERRS,ioos:station:NOAA.NERRS:gndblwq:1,2015-04-10T06:00:00Z,30.3571,-88.4629,0.26,18.7,1111122 
NERRS,ioos:station:NOAA.NERRS:gndblwq:1,2015-04-10T07:00:00Z,30.3571,-88.4629,0.3,18.8,1111122 
NERRS,ioos:station:NOAA.NERRS:gndblwq:1,2015-04-10T08:00:00Z,30.3571,-88.4629,0.36,18.8,1111122 
NERRS,ioos:station:NOAA.NERRS:gndblwq:1,2015-04-10T09:00:00Z,30.3571,-88.4629,0.4,18.8,1111122 
NERRS,ioos:station:NOAA.NERRS:gndblwq:1,2015-04-10T10:00:00Z,30.3571,-88.4629,0.44,18.7,1111122 
NERRS,ioos:station:NOAA.NERRS:gndblwq:1,2015-04-10T11:00:00Z,30.3571,-88.4629,0.48,18.6,1111122 
NERRS,ioos:station:NOAA.NERRS:gndblwq:1,2015-04-10T12:00:00Z,30.3571,-88.4629,0.54,18.7,1111122 
NERRS,ioos:station:NOAA.NERRS:gndblwq:1,2015-04-10T13:00:00Z,30.3571,-88.4629,0.57,18.6,1111122 
NERRS,ioos:station:NOAA.NERRS:gndblwq:1,2015-04-10T14:00:00Z,30.3571,-88.4629,0.62,18.6,1111122 
NERRS,ioos:station:NOAA.NERRS:gndblwq:1,2015-04-10T15:00:00Z,30.3571,-88.4629,0.65,18.6,1111122 
NERRS,ioos:station:NOAA.NERRS:gndblwq:1,2015-04-10T16:00:00Z,30.3571,-88.4629,0.69,18.5,1111122 
NERRS,ioos:station:NOAA.NERRS:gndblwq:1,2015-04-10T17:00:00Z,30.3571,-88.4629,0.71,18.5,1111122 
NERRS,ioos:station:NOAA.NERRS:gndblwq:1,2015-04-10T19:00:00Z,30.3571,-88.4629,0.71,18.4,1111122 
NERRS,ioos:station:NOAA.NERRS:gndblwq:1,2015-04-10T20:00:00Z,30.3571,-88.4629,0.68,18.8,1111122 
NERRS,ioos:station:NOAA.NERRS:gndblwq:1,2015-04-10T21:00:00Z,30.3571,-88.4629,0.63,18.8,1111122 
NERRS,ioos:station:NOAA.NERRS:gndblwq:1,2015-04-10T22:00:00Z,30.3571,-88.4629,0.58,18.8,1111122 
NERRS,ioos:station:NOAA.NERRS:gndblwq:1,2015-04-10T23:00:00Z,30.3571,-88.4629,0.5,18.7,1111122 
NERRS,ioos:station:NOAA.NERRS:gndblwq:1,2015-04-11T00:00:00Z,30.3571,-88.4629,0.46,18.8,1111122 
NERRS,ioos:station:NOAA.NERRS:gndblwq:1,2015-04-11T01:00:00Z,30.3571,-88.4629,0.39,18.7,1111122 
NERRS,ioos:station:NOAA.NERRS:gndblwq:1,2015-04-11T02:00:00Z,30.3571,-88.4629,0.3,18.6,1111122 
NERRS,ioos:station:NOAA.NERRS:gndblwq:1,2015-04-11T03:00:00Z,30.3571,-88.4629,0.21,18.7,1111122 
NERRS,ioos:station:NOAA.NERRS:gndblwq:1,2015-04-11T04:00:00Z,30.3571,-88.4629,0.16,18.7,1111122 
NERRS,ioos:station:NOAA.NERRS:gndblwq:1,2015-04-11T05:00:00Z,30.3571,-88.4629,0.19,18.8,1111122 
NERRS,ioos:station:NOAA.NERRS:gndblwq:1,2015-04-11T06:00:00Z,30.3571,-88.4629,0.18,18.7,1111122 
NERRS,ioos:station:NOAA.NERRS:gndblwq:1,2015-04-11T07:00:00Z,30.3571,-88.4629,0.21,18.7,1111122 
NERRS,ioos:station:NOAA.NERRS:gndblwq:1,2015-04-11T08:00:00Z,30.3571,-88.4629,0.26,18.6,1111122 
NERRS,ioos:station:NOAA.NERRS:gndblwq:1,2015-04-11T09:00:00Z,30.3571,-88.4629,0.28,18.6,1111122 
NERRS,ioos:station:NOAA.NERRS:gndblwq:1,2015-04-11T10:00:00Z,30.3571,-88.4629,0.3,18.6,1111122 
NERRS,ioos:station:NOAA.NERRS:gndblwq:1,2015-04-11T11:00:00Z,30.3571,-88.4629,0.33,18.6,1111122 
NERRS,ioos:station:NOAA.NERRS:gndblwq:1,2015-04-11T12:00:00Z,30.3571,-88.4629,0.37,18.6,1111122 
NERRS,ioos:station:NOAA.NERRS:gndblwq:1,2015-04-11T13:00:00Z,30.3571,-88.4629,0.42,18.6,1111122 